Weather History for KDMO - April, 2013

Change the Weather History Date:

Tuesday, April 2, 2013

  Actual Average Record
Temperature  
Mean Temperature 39 °F 52 °F  
Max Temperature 49 °F 63 °F - ()
Min Temperature 29 °F 42 °F - ()
Degree Days  
Heating Degree Days 26 13  
Month to date heating degree days 50 26  
Since 1 July heating degree days 4291 4228  
Cooling Degree Days 0 1  
Month to date cooling degree days 0 1  
Year to date cooling degree days 1 4  
Moisture  
Dew Point 21 °F    
Average Humidity 50    
Maximum Humidity 69    
Minimum Humidity 31    
Precipitation  
Precipitation 0.00 in 0.10 in - ()
Month to date precipitation 0.00 0.19  
Year to date precipitation 7.67 6.40  
Sea Level Pressure  
Sea Level Pressure 30.32 in    
Wind  
Wind Speed 5 mph (NE)    
Max Wind Speed 12 mph    
Max Gust Speed 15 mph    
Visibility 10 miles    
Events      
T = Trace of Precipitation, MM = Missing Value Source: NWS Daily Summary

Daily Weather History Graph

Daily Weather History Graph

Search for Another Location

Airport or City:

Trip Planner

Search our weather history database for the weather conditions in past years. The results will help you decide how hot, cold, wet, or windy it might be!

Date:

Astronomy

Apr. 02, 2013 Rise Set
Actual Time 6:55 AM CDT 7:37 PM CDT
Civil Twilight 6:28 AM CDT 8:04 PM CDT
Nautical Twilight 5:57 AM CDT 8:36 PM CDT
Astronomical Twilight 5:24 AM CDT 9:08 PM CDT
Moon 1:40 AM CDT (4/2) 11:49 AM CDT (4/2)
Length of Visible Light 13h 35m
Length of Day
12h 41m
Waning Gibbous, 55% of the Moon is Illuminated
Apr 2
Waning Gibbous
Apr 2
Last Quarter
Apr 10
New
Apr 18
First Quarter
Apr 25
Full

Hourly Weather History & Observations

Time (CDT) Temp. Windchill Dew Point Humidity Pressure Visibility Wind Dir Wind Speed Gust Speed Precip Events Conditions
12:53 AM 34.0 °F 29.8 °F 21.0 °F 59% 30.30 in 10.0 mi NNW 4.6 mph - N/A   Clear
1:53 AM 33.1 °F 26.9 °F 23.0 °F 66% 30.30 in 10.0 mi NNE 6.9 mph - N/A   Clear
2:53 AM 32.0 °F 25.6 °F 21.0 °F 64% 30.31 in 10.0 mi NNE 6.9 mph - N/A   Clear
3:53 AM 32.0 °F 26.4 °F 21.0 °F 64% 30.31 in 10.0 mi NNE 5.8 mph - N/A   Clear
4:53 AM 30.0 °F 25.2 °F 19.9 °F 66% 30.32 in 10.0 mi ENE 4.6 mph - N/A   Clear
5:53 AM 28.9 °F 23.9 °F 19.9 °F 69% 30.33 in 10.0 mi ENE 4.6 mph - N/A   Clear
6:53 AM 30.0 °F 26.5 °F 19.9 °F 66% 30.35 in 10.0 mi ENE 3.5 mph - N/A   Clear
7:53 AM 30.0 °F - 19.9 °F 66% 30.38 in 10.0 mi Calm Calm - N/A   Clear
8:53 AM 33.1 °F 26.9 °F 21.0 °F 61% 30.36 in 10.0 mi East 6.9 mph - N/A   Clear
9:53 AM 37.0 °F 31.0 °F 21.0 °F 52% 30.37 in 10.0 mi East 8.1 mph - N/A   Clear
10:53 AM 39.0 °F 34.8 °F 21.0 °F 49% 30.36 in 10.0 mi NE 5.8 mph - N/A   Clear
11:53 AM 43.0 °F 38.8 °F 21.9 °F 43% 30.35 in 10.0 mi ESE 6.9 mph - N/A   Clear
12:53 PM 44.1 °F 40.8 °F 19.9 °F 38% 30.35 in 10.0 mi Variable 5.8 mph - N/A   Clear
1:53 PM 45.0 °F - 19.0 °F 36% 30.33 in 10.0 mi Calm Calm - N/A   Clear
2:53 PM 46.9 °F - 19.0 °F 33% 30.31 in 10.0 mi Variable 3.5 mph - N/A   Clear
3:53 PM 48.9 °F - 21.9 °F 35% 30.30 in 10.0 mi North 8.1 mph - N/A   Clear
4:53 PM 48.9 °F - 21.9 °F 35% 30.29 in 10.0 mi NNE 9.2 mph - N/A   Clear
5:53 PM 48.0 °F - 19.9 °F 33% 30.29 in 10.0 mi NNE 8.1 mph - N/A   Clear
6:53 PM 46.0 °F 43.1 °F 24.1 °F 42% 30.29 in 10.0 mi NNE 5.8 mph - N/A   Clear
7:53 PM 43.0 °F 40.3 °F 23.0 °F 45% 30.29 in 10.0 mi NNE 4.6 mph - N/A   Clear
8:53 PM 42.1 °F 39.2 °F 24.1 °F 49% 30.30 in 10.0 mi NNE 4.6 mph - N/A   Clear
9:53 PM 41.0 °F 38.0 °F 21.0 °F 45% 30.31 in 10.0 mi NE 4.6 mph - N/A   Clear
10:53 PM 39.9 °F 37.8 °F 23.0 °F 51% 30.31 in 10.0 mi East 3.5 mph - N/A   Clear
11:53 PM 39.0 °F 35.7 °F 23.0 °F 53% 30.32 in 10.0 mi East 4.6 mph - N/A   Clear